Location: Olmitz Fire Department
(38.5162°N, 98.9359°W)
Time: 10:19:56
(UTC+00:00)

Daily predictions for brighter satellites

Satellite Brightness Start Highest point End
(mag) Time Altitude Azimuth Time Altitude Azimuth Time Altitude Azimuth
STARLINK 1012 4.2 12:03:38 26° S 12:03:38 26° S 12:05:25 10° SSE
STARLINK 1010 4.2 12:03:51 26° S 12:03:51 26° S 12:05:38 10° SSE
STARLINK 1026 4.2 12:04:04 26° S 12:04:04 26° S 12:05:52 10° SSE
STARLINK 1013 4.2 12:04:16 26° S 12:04:16 26° S 12:06:04 10° SSE
STARLINK 1009 4.2 12:04:31 26° SSW 12:04:31 26° SSW 12:06:18 10° SSE
STARLINK 1015 4.2 12:04:44 27° SSW 12:04:44 27° SSW 12:06:34 10° SSE
STARLINK 1016 4.2 12:04:57 26° SSW 12:04:57 26° SSW 12:06:48 10° SSE
STARLINK 1008 4.2 12:05:10 26° SSW 12:05:10 26° SSW 12:07:00 10° SSE
STARLINK 1046 3.4 12:04:10 51° WSW 12:04:25 53° SW 12:07:57 10° SSE
STARLINK 1014 4.2 12:05:21 26° SSW 12:05:21 26° SSW 12:07:10 10° SSE
STARLINK 1025 4.2 12:05:34 26° SSW 12:05:34 26° SSW 12:07:24 10° SSE
STARLINK 1017 4.2 12:05:51 26° SSW 12:05:51 26° SSW 12:07:42 10° SSE
STARLINK 1023 4.2 12:06:01 26° SSW 12:06:01 26° SSW 12:07:50 10° SSE
STARLINK 1007 4.2 12:06:15 26° SSW 12:06:15 26° SSW 12:08:06 10° SSE
STARLINK 1048 4.2 12:06:27 26° SSW 12:06:27 26° SSW 12:08:17 10° SSE
STARLINK 1049 4.2 12:06:39 26° SSW 12:06:39 26° SSW 12:08:28 10° SSE
STARLINK 1051 4.2 12:06:52 26° SSW 12:06:52 26° SSW 12:08:43 10° SSE
STARLINK 1037 4.2 12:07:07 26° SSW 12:07:07 26° SSW 12:08:57 10° SSE
STARLINK 1059 4.2 12:07:17 26° SSW 12:07:17 26° SSW 12:09:08 10° SSE
STARLINK 1057 4.2 12:07:33 26° SSW 12:07:33 26° SSW 12:09:26 10° SSE
STARLINK 1052 4.2 12:07:40 26° SSW 12:07:40 26° SSW 12:09:31 10° SSE
STARLINK 1068 4.2 12:07:59 26° SSW 12:07:59 26° SSW 12:09:52 10° SSE
STARLINK 1034 4.2 12:08:04 26° SSW 12:08:04 26° SSW 12:09:58 10° SSE
Cosmos 1331 Rocket 4.1 12:02:17 10° SSW 12:07:25 78° ESE 12:12:36 10° NNE
STARLINK 1029 4.2 12:08:12 26° SSW 12:08:12 26° SSW 12:10:05 10° SSE
STARLINK 1060 4.2 12:08:25 25° SSW 12:08:25 25° SSW 12:10:18 10° SSE
STARLINK 1039 3.5 12:07:29 46° WSW 12:07:51 49° SW 12:11:22 10° SSE
STARLINK 1030 4.2 12:08:36 26° SSW 12:08:36 26° SSW 12:10:34 10° SSE
STARLINK 1020 4.2 12:08:51 25° SSW 12:08:51 25° SSW 12:10:45 10° SSE
STARLINK 1040 4.4 12:09:27 23° SSW 12:09:27 23° SSW 12:11:11 10° S
STARLINK 1033 4.2 12:09:29 25° SSW 12:09:29 25° SSW 12:11:22 10° SSE
STARLINK 1031 4.2 12:09:40 25° SSW 12:09:40 25° SSW 12:11:33 10° SSE
STARLINK 1024 4.2 12:09:54 26° SSW 12:09:54 26° SSW 12:11:53 10° SSE
STARLINK 1035 4.2 12:10:06 25° SSW 12:10:06 25° SSW 12:12:00 10° SSE
STARLINK 1032 4.2 12:10:20 25° SSW 12:10:20 25° SSW 12:12:14 10° SSE
STARLINK 1045 3.6 12:09:28 43° WSW 12:09:54 46° SW 12:13:25 10° SSE
STARLINK 1011 4.2 12:10:32 25° SSW 12:10:32 25° SSW 12:12:32 10° SSE
STARLINK 1036 4.2 12:10:48 25° SSW 12:10:48 25° SSW 12:12:44 10° SSE
STARLINK 1047 4.2 12:11:12 24° SSW 12:11:12 24° SSW 12:13:06 10° SSE
PAYLOAD B 4.1 12:08:51 10° NNE 12:14:24 81° WNW 12:19:56 10° SSW
MOS 1-B 4.3 12:09:37 10° N 12:15:20 63° WNW 12:21:00 10° SSW
PSLV R/B 2.5 12:15:31 67° SSE 12:15:31 67° SSE 12:17:46 10° ESE
Geosat 3.9 12:14:16 10° SSE 12:19:17 83° WSW 12:23:53 13° NNW
Okean 1-7 3.9 12:20:30 27° W 12:20:32 27° W 12:24:14 10° SSW
SKYMED 2 3.8 12:16:49 10° S 12:20:59 46° W 12:24:01 18° NNW
Cosmos 1110 Rocket 3.9 12:17:28 10° SSW 12:22:37 67° WNW 12:27:47 10° NNE
NOSS 3-2 (A) 3.6 12:17:39 10° SSW 12:23:13 71° ESE 12:29:29 10° NE
BREEZE-M DEB (TANK) 3.7 12:22:28 11° SSW 12:24:37 47° SE 12:28:08 10° ENE
Meteor 1-5 Rocket 4.4 12:19:21 10° S 12:25:18 81° E 12:31:09 10° N
Cosmos 2180 Rocket 4.4 12:21:15 10° SSW 12:27:22 74° W 12:33:33 10° N
CZ-4C R/B 4.4 12:29:20 15° W 12:30:32 15° WSW 12:34:53 10° SW
Meteor 2-4 Rocket 3.5 12:28:27 10° NNW 12:33:55 80° W 12:39:15 10° S
USA 238 DEB 3.6 12:27:50 10° SW 12:34:29 85° WNW 12:41:22 10° NNE
USA 238 3.6 12:27:57 10° SSW 12:34:35 85° WNW 12:41:28 10° NNE
Okean 1 4.5 12:35:52 21° WNW 12:36:47 23° W 12:39:55 10° SW
Cosmos 1666 4.2 12:33:39 10° SSE 12:37:13 40° E 12:40:47 10° NNE
GEOS 3 Rocket 3.7 12:32:41 10° SSE 12:37:41 61° WSW 12:42:20 12° NW
SJ-7 4.2 12:34:10 10° N 12:38:10 77° WNW 12:42:08 10° SSW
CENTAUR R/B 3.8 12:34:13 10° S 12:39:35 43° ESE 12:45:45 10° NE
ATLAS CENTAUR R/B 3.4 12:38:57 10° N 12:42:09 21° NE 12:45:10 10° E
Cosmos 2263 Rocket 3.6 12:41:51 15° WNW 12:42:18 15° NW 12:45:30 10° NNW
Cosmos 332 Rocket 4.0 12:42:14 10° SW 12:46:58 47° WNW 12:51:43 10° N
CZ-4 R/B 4.5 12:47:19 10° ENE 12:49:38 15° E 12:51:58 10° SE
Cosmos 2279 Rocket 4.4 12:44:41 10° SW 12:50:21 37° WNW 12:56:06 10° N
H-2A R/B 3.9 12:50:04 10° SW 12:54:01 28° S 13:08:23 10° ESE
Okean 3 4.2 12:53:39 10° NNW 12:57:25 32° W 13:01:11 10° SSW
Envisat 4.5 12:52:55 10° NNE 12:57:43 41° E 13:02:30 10° SSE
ADEOS Rocket 3.6 12:51:34 10° SSE 12:58:31 71° ENE 13:04:45 10° N
SMAP 3.1 12:56:43 10° NNE 13:01:24 90° W 13:06:03 10° SSW
FENGYUN 3A 4.4 12:56:54 10° N 13:01:28 29° WNW 13:06:02 10° SW
Cosmos 1536 2.9 12:58:21 10° SSW 13:02:21 57° W 13:06:22 10° N
Cosmos 1908 Rocket 3.6 12:58:16 10° S 13:02:44 89° ESE 13:07:13 10° N
Orbus 7S? 4.3 13:02:44 11° WNW 13:03:52 14° NW 13:05:21 10° N
Cosmos 371 Rocket 4.3 13:03:35 10° WSW 13:07:31 24° WNW 13:11:30 10° N
COSMO-SKYMED 1 4.4 13:07:08 10° WSW 13:09:18 14° W 13:11:28 10° WNW
H-2A R/B 2.7 13:06:46 10° N 13:10:28 60° WNW 13:14:13 10° SSW
Cosmos 1743 4.1 13:07:46 10° SSE 13:11:21 42° E 13:14:58 10° NNE
Cosmos 405 3.6 13:08:30 10° NNW 13:11:46 36° W 13:15:01 10° SSW
ALOS 3.6 13:09:25 10° NNW 13:12:31 18° WNW 13:15:36 10° WSW
Cosmos 1844 Rocket 3.2 13:08:13 10° SW 13:13:21 37° WNW 13:18:30 10° N
IRIDIUM 106 4.3 13:08:40 10° N 13:13:53 74° W 13:19:04 10° S
Cosmos 1844 4.1 13:12:20 10° SW 13:17:50 45° WNW 13:23:22 10° N
Cosmos 2237 Rocket 2.8 23:33:18 10° SW 23:38:55 61° WNW 23:44:34 10° NNE
Cosmos 921 Rocket 4.1 23:37:00 10° NNE 23:40:29 23° ENE 23:43:59 10° ESE
Cosmos 614 Rocket 4.4 23:37:59 10° S 23:42:45 42° ESE 23:47:32 10° NNE
OAO 3 Rocket 3.7 23:38:41 10° W 23:43:15 56° S 23:47:53 10° ESE
STARLINK-80 4.5 23:41:05 10° SSW 23:44:28 31° SE 23:47:51 10° ENE
COBE Rocket 3.9 23:40:58 10° NNE 23:45:34 56° E 23:50:14 10° S
Cosmos 2333 Rocket 4.4 23:41:51 10° WSW 23:46:09 21° NW 23:50:30 10° N
Cosmos 2219 Rocket 4.3 23:42:52 10° WSW 23:47:00 21° NW 23:51:12 10° N
Aureole 1 Rocket 2.2 23:46:07 10° SSW 23:49:03 82° WNW 23:52:16 10° NNE
H-2A R/B 2.9 23:46:18 10° SSE 23:49:50 45° ENE 23:53:22 10° N
AQUARIUS 4.4 23:45:47 10° SSE 23:50:07 49° ENE 23:54:27 10° N
Cosmos 1441 Rocket 3.9 23:49:02 10° NNE 23:52:27 31° ENE 23:55:49 10° SE
Cosmos 1943 Rocket 3.7 23:50:07 10° NNE 23:53:17 15° NE 23:56:26 10° E
Cosmos 1174 4.3 23:48:20 10° SSW 23:53:41 89° WNW 23:57:56 10° NNE
Shenzhou-11 Module 1.6 23:52:28 10° WNW 23:55:13 89° SSW 23:57:57 10° ESE
Cosmos 1975 4.4 23:54:11 10° NE 23:56:32 15° ENE 23:58:52 10° ESE
